TimeEET,TemperatureF,Dew PointF,Humidity,Sea Level PressureIn,VisibilityMPH,Wind Direction,Wind SpeedMPH,Gust SpeedMPH,PrecipitationIn,Events,Conditions,WindDirDegrees,DateUTC
12:50 AM,30.2,28.4,93,29.65,6.2,Variable,1.2,-,N/A,,Mostly Cloudy,0,2013-03-23 22:50:00
1:50 AM,30.2,26.6,86,29.65,6.2,WSW,9.2,-,N/A,,Mostly Cloudy,250,2013-03-23 23:50:00
2:00 AM,30,27,82,,6,WSW,9.2,,,,Partly Cloudy,250,2013-03-24 00:00:00
2:50 AM,30.2,21.2,69,29.65,6.2,North,8.1,-,N/A,,Mostly Cloudy,350,2013-03-24 00:50:00
3:50 AM,30.2,19.4,64,29.68,6.2,SW,4.6,-,N/A,,Mostly Cloudy,230,2013-03-24 01:50:00
5:50 AM,28.4,17.6,64,29.71,6.2,Variable,9.2,23.0,N/A,,Mostly Cloudy,0,2013-03-24 03:50:00
6:50 AM,28.4,19.4,69,29.74,6.2,Variable,5.8,-,N/A,,Mostly Cloudy,0,2013-03-24 04:50:00
7:50 AM,30.2,19.4,64,29.77,6.2,Variable,16.1,31.1,N/A,,Mostly Cloudy,0,2013-03-24 05:50:00
8:00 AM,30,18,49,,6,NNW,16.1,,,,Partly Cloudy,340,2013-03-24 06:00:00
8:50 AM,30.2,21.2,69,29.77,6.2,NNW,27.6,-,N/A,,Mostly Cloudy,340,2013-03-24 06:50:00
9:50 AM,32.0,17.6,55,29.80,6.2,NNW,27.6,-,N/A,,Mostly Cloudy,330,2013-03-24 07:50:00
10:50 AM,33.8,14.0,44,29.80,6.2,NNW,29.9,-,N/A,,Mostly Cloudy,340,2013-03-24 08:50:00
11:50 AM,33.8,14.0,44,29.83,6.2,NNW,28.8,40.3,N/A,,Mostly Cloudy,340,2013-03-24 09:50:00
12:50 PM,33.8,12.2,41,29.86,6.2,NNW,29.9,-,N/A,,Mostly Cloudy,340,2013-03-24 10:50:00
1:50 PM,35.6,10.4,35,29.86,6.2,North,18.4,-,N/A,,Scattered Clouds,350,2013-03-24 11:50:00
2:00 PM,35,9,20,,6,North,18.4,,,,Partly Cloudy,350,2013-03-24 12:00:00
2:50 PM,32.0,14.0,48,29.89,6.2,NW,21.9,-,N/A,,Scattered Clouds,320,2013-03-24 12:50:00
3:50 PM,28.4,14.0,55,29.92,6.2,NNW,24.2,-,N/A,,Mostly Cloudy,330,2013-03-24 13:50:00
4:50 PM,26.6,12.2,55,29.95,6.2,NNW,24.2,-,N/A,,Mostly Cloudy,340,2013-03-24 14:50:00
5:50 PM,23.0,12.2,63,29.98,6.2,North,17.3,29.9,N/A,,Scattered Clouds,350,2013-03-24 15:50:00
6:50 PM,23.0,10.4,59,30.01,6.2,NNW,20.7,-,N/A,,Partly Cloudy,340,2013-03-24 16:50:00
7:50 PM,23.0,10.4,59,30.01,6.2,NNW,21.9,-,N/A,,Scattered Clouds,340,2013-03-24 17:50:00
8:00 PM,22,10,48,,6,NNW,21.9,,,,Partly Cloudy,340,2013-03-24 18:00:00
8:50 PM,23.0,8.6,54,30.04,6.2,SE,6.9,-,N/A,,Scattered Clouds,130,2013-03-24 18:50:00
9:50 PM,21.2,8.6,58,30.04,6.2,Calm,Calm,-,N/A,,Scattered Clouds,0,2013-03-24 19:50:00
10:50 PM,19.4,8.6,63,30.04,6.2,Calm,Calm,-,N/A,,Scattered Clouds,0,2013-03-24 20:50:00
11:50 PM,19.4,10.4,68,30.04,6.2,South,2.3,-,N/A,,Scattered Clouds,170,2013-03-24 21:50:00